GW1572 Weather Reports


Display with metric or nautical units.
time (UTC)temp
F
wind
direction
speed
MPH
gust
MPH
rain 1hr
in
rain 24hr
in
rain mn
in
humidity
%
barometer
mb
20260904083234 73 125 0.0 0.0 0.00 0.00 0.00 99 1007.1
20260904082816 74 126 0.0 0.0 0.00 0.00 0.00 99 1007.1
20260904082347 73 132 0.0 0.0 0.00 0.00 0.00 99 1006.7
20260904081930 73 136 0.0 0.0 0.00 0.00 0.00 99 1006.7
20260904081502 73 135 0.0 0.0 0.00 0.00 0.00 99 1006.7
20260904081048 73 135 0.0 0.0 0.00 0.00 0.00 99 1006.7
20260904080617 74 134 0.0 0.0 0.00 0.00 0.00 99 1006.7
20260904075730 74 143 0.0 0.0 0.00 0.00 0.00 99 1007.1
20260904075314 74 143 0.0 0.0 0.00 0.00 0.00 99 1006.7
20260904074858 74 142 0.0 0.0 0.00 0.00 0.00 99 1007.1
20260904074443 74 142 0.0 0.0 0.00 0.00 0.00 99 1006.7
20260904074012 74 142 0.0 0.0 0.00 0.00 0.00 99 1006.7
20260904073539 74 142 0.0 0.0 0.00 0.00 0.00 99 1006.7
20260904073108 74 130 0.0 0.0 0.00 0.00 0.00 99 1007.1
20260904072654 74 135 0.0 0.0 0.00 0.00 0.00 99 1006.7
20260904072238 74 142 0.0 0.0 0.00 0.00 0.00 99 1007.1
20260904071824 74 136 0.0 0.0 0.00 0.00 0.00 99 1007.1
20260904071406 74 136 0.0 0.0 0.00 0.00 0.00 99 1007.1
20260904070951 74 122 0.0 0.0 0.00 0.00 0.00 99 1007.1
20260904070535 75 143 0.0 0.0 0.00 0.00 0.00 99 1007.1
20260904070120 75 142 0.0 0.0 0.00 0.00 0.00 99 1007.1
20260904065233 75 138 0.0 0.0 0.00 0.00 0.00 99 1007.1
20260904064815 75 124 0.0 0.0 0.00 0.00 0.00 99 1007.1
20260904064358 75 130 0.0 0.0 0.00 0.00 0.00 99 1007.1
20260904063941 75 136 0.0 0.0 0.00 0.00 0.00 99 1007.1
20260904063525 75 135 0.0 0.0 0.00 0.00 0.00 99 1007.1
20260904063053 75 129 0.0 0.0 0.00 0.00 0.00 99 1007.1
20260904062622 75 117 0.0 0.0 0.00 0.00 0.00 99 1007.1
20260904062207 75 135 0.0 0.0 0.00 0.00 0.00 99 1007.1
20260904061751 75 142 0.0 0.0 0.00 0.00 0.00 99 1007.1
20260904061336 75 142 0.0 0.0 0.00 0.00 0.00 99 1007.1
20260904060450 75 142 0.0 0.0 0.00 0.00 0.00 99 1007.4
20260904060019 75 142 0.0 0.0 0.00 0.00 0.00 99 1007.4
20260904055603 75 140 0.0 0.0 0.00 0.00 0.00 99 1007.4
20260904054717 76 144 0.0 0.0 0.00 0.00 0.00 99 1007.4
20260904053815 76 132 0.0 0.0 0.00 0.00 0.00 99 1007.4
20260904053359 76 116 0.0 0.0 0.00 0.00 0.00 99 1007.4
20260904052927 76 156 0.0 1.0 0.00 0.00 0.00 99 1007.4
20260904052418 76 145 0.0 0.0 0.00 0.00 0.00 99 1007.7
20260904051842 76 144 0.0 0.0 0.00 0.00 0.00 99 1007.7
20260904051213 76 144 0.0 0.0 0.00 0.00 0.00 99 1007.4
20260904050645 76 144 0.0 0.0 0.00 0.00 0.00 99 1007.4
20260904050034 76 144 0.0 0.0 0.00 0.00 0.00 99 1007.7
20260904044826 76 143 0.0 0.0 0.00 0.00 0.00 99 1007.4
20260904044248 77 135 0.0 0.0 0.00 0.00 0.00 99 1007.4
20260904043619 77 136 0.0 0.0 0.00 0.00 0.00 99 1007.7
20260904043026 77 143 0.0 0.0 0.00 0.00 0.00 99 1007.4
20260904041823 77 141 0.0 0.0 0.00 0.00 0.00 99 1007.4
20260904041219 77 141 0.0 0.0 0.00 0.00 0.00 99 1007.4
20260904040620 78 133 0.0 0.0 0.00 0.00 0.00 99 1007.1
20260904040025 78 135 0.0 0.0 0.00 0.00 0.00 99 1007.1
20260904034217 78 141 0.0 0.0 0.00 0.00 0.00 99 1007.1
20260904033614 78 113 0.0 0.0 0.00 0.00 0.00 99 1007.1
20260904032426 78 144 0.0 0.0 0.00 0.00 0.00 99 1007.4
20260904031807 78 140 0.0 0.0 0.00 0.00 0.00 99 1007.4
20260904031220 78 135 0.0 0.0 0.00 0.00 0.00 99 1007.1
20260904030630 78 135 0.0 0.0 0.00 0.00 0.00 99 1007.1
20260904030036 79 130 0.0 0.0 0.00 0.00 0.00 99 1007.4
20260904025411 79 139 0.0 0.0 0.00 0.00 0.00 99 1007.1
20260904024825 79 124 0.0 0.0 0.00 0.00 0.00 99 1007.1
20260904024224 79 71 0.0 1.0 0.00 0.00 0.00 99 1007.4
20260904023042 80 140 0.0 0.0 0.00 0.00 0.00 99 1007.1
20260904022433 80 126 0.0 0.0 0.00 0.00 0.00 99 1007.4
20260904021206 80 125 0.0 0.0 0.00 0.00 0.00 98 1007.4
20260904020642 80 132 0.0 0.0 0.00 0.00 0.00 98 1007.4
20260904020022 80 132 0.0 0.0 0.00 0.00 0.00 98 1007.4
20260904015423 80 131 0.0 0.0 0.00 0.00 0.00 98 1007.4
20260904014240 80 125 0.0 0.0 0.00 0.00 0.00 97 1007.4
20260904013613 81 128 0.0 0.0 0.00 0.00 0.00 97 1007.4
20260904013043 81 133 0.0 0.0 0.00 0.00 0.00 97 1007.4
20260904012419 81 133 0.0 0.0 0.00 0.00 0.00 97 1007.1
20260904011825 81 132 0.0 0.0 0.00 0.00 0.00 96 1007.1
20260904010009 81 139 0.0 0.0 0.00 0.00 0.00 95 1007.1
20260904005444 82 133 0.0 0.0 0.00 0.00 0.00 95 1007.1
20260904004806 82 126 0.0 0.0 0.00 0.00 0.00 94 1007.1
20260904004242 82 125 0.0 0.0 0.00 0.00 0.00 94 1006.7
20260904002445 83 142 0.0 0.0 0.00 0.00 0.00 92 1006.7
20260904001848 83 142 0.0 0.0 0.00 0.00 0.00 91 1006.4
20260904001236 84 142 0.0 0.0 0.00 0.00 0.00 91 1006.4
20260904000641 84 148 0.0 0.0 0.00 0.00 0.00 90 1006.4
20260904000015 85 131 0.0 0.0 0.00 0.00 0.00 90 1006.7
20260903235440 85 141 0.0 0.0 0.00 0.00 0.00 89 1006.4
20260903234828 86 141 0.0 0.0 0.00 0.00 0.00 89 1006.4
20260903234218 86 139 0.0 0.0 0.00 0.00 0.00 87 1006.7
20260903233618 86 139 0.0 0.0 0.00 0.00 0.00 86 1006.7
20260903232431 89 125 0.0 0.0 0.00 0.00 0.00 81 1006.7
20260903231236 94 144 0.0 0.0 0.00 0.00 0.00 74 1006.4
20260903230034 96 150 0.0 0.0 0.00 0.00 0.00 70 1006.0
20260903225421 96 149 0.0 0.0 0.00 0.00 0.00 69 1006.0
20260903224821 97 141 0.0 0.0 0.00 0.00 0.00 68 1006.0
20260903224246 97 134 0.0 0.0 0.00 0.00 0.00 67 1006.0
20260903221840 98 172 0.0 0.0 0.00 0.00 0.00 65 1005.7
20260903221234 98 150 1.0 1.0 0.00 0.00 0.00 67 1005.7
20260903220619 97 158 0.0 1.0 0.00 0.00 0.00 68 1005.7
20260903220026 97 161 0.0 1.0 0.00 0.00 0.00 67 1006.0
20260903215411 97 174 0.0 1.0 0.00 0.00 0.00 65 1005.7
20260903214833 98 181 1.0 1.0 0.00 0.00 0.00 62 1005.7
20260903214212 98 133 0.0 0.0 0.00 0.00 0.00 62 1005.7
20260903213610 97 133 0.0 1.0 0.00 0.00 0.00 64 1005.7
20260903213019 98 172 0.0 1.0 0.00 0.00 0.00 63 1005.7
20260903212434 98 162 0.0 0.0 0.00 0.00 0.00 63 1005.7
20260903211834 97 162 0.0 0.0 0.00 0.00 0.00 62 1005.7
20260903211243 96 115 0.0 1.0 0.00 0.00 0.00 65 1006.0
20260903210617 93 188 1.0 1.0 0.00 0.00 0.00 67 1006.4
20260903210020 90 316 2.0 2.0 0.00 0.00 0.00 69 1006.0
20260903205411 89 353 3.0 3.0 0.00 0.00 0.00 71 1006.4
20260903204849 90 47 3.0 6.0 0.00 0.00 0.00 69 1006.7
20260903204243 93 231 8.0 12.0 0.00 0.00 0.00 68 1006.7
20260903203628 94 143 0.0 0.0 0.00 0.00 0.00 70 1006.7
20260903203045 96 144 0.0 1.0 0.00 0.00 0.00 68 1006.7
20260903202421 97 137 0.0 0.0 0.00 0.00 0.00 65 1006.4
20260903201833 97 162 0.0 1.0 0.00 0.00 0.00 63 1006.4
20260903201246 98 5 1.0 2.0 0.00 0.00 0.00 57 1006.7
20260903200635 98 342 2.0 3.0 0.00 0.00 0.00 54 1006.7
20260903200012 101 195 1.0 2.0 0.00 0.00 0.00 53 1006.7
20260903195434 100 203 0.0 1.0 0.00 0.00 0.00 60 1006.7
20260903194843 99 170 1.0 1.0 0.00 0.00 0.00 59 1006.7
20260903194213 99 194 1.0 2.0 0.00 0.00 0.00 55 1006.7
20260903193639 98 258 1.0 1.0 0.00 0.00 0.00 54 1007.1
20260903193025 98 211 1.0 1.0 0.00 0.00 0.00 57 1007.1
20260903192439 98 191 2.0 2.0 0.00 0.00 0.00 59 1007.4
20260903191821 99 183 2.0 2.0 0.00 0.00 0.00 63 1007.1
20260903191212 96 165 1.0 1.0 0.00 0.00 0.00 65 1007.7
20260903190628 96 170 1.0 1.0 0.00 0.00 0.00 64 1007.7
20260903190031 99 229 1.0 1.0 0.00 0.00 0.00 56 1007.4
20260903185438 98 271 3.0 4.0 0.00 0.00 0.00 58 1007.7
20260903184239 98 295 2.0 3.0 0.00 0.00 0.00 60 1007.7
20260903183621 98 217 1.0 1.0 0.00 0.00 0.00 63 1007.7
20260903182434 93 209 1.0 1.0 0.00 0.00 0.00 72 1007.7
20260903181836 90 190 1.0 1.0 0.00 0.00 0.00 76 1008.1
20260903181249 89 152 0.0 0.0 0.00 0.00 0.00 79 1008.1
20260903180610 90 149 0.0 1.0 0.00 0.00 0.00 77 1008.1
20260903180039 92 134 0.0 0.0 0.00 0.00 0.00 74 1008.1
20260903175445 93 162 0.0 1.0 0.00 0.00 0.00 71 1008.4
20260903174825 94 173 1.0 1.0 0.00 0.00 0.00 68 1008.1
20260903174239 95 4 2.0 2.0 0.00 0.00 0.00 63 1008.1
20260903173015 96 173 1.0 1.0 0.00 0.00 0.00 62 1008.4
20260903172433 95 178 1.0 1.0 0.00 0.00 0.00 65 1008.4
20260903171826 95 166 0.0 1.0 0.00 0.00 0.00 63 1008.4
20260903170014 94 199 1.0 1.0 0.00 0.00 0.00 68 1008.4
20260903165428 94 185 1.0 2.0 0.00 0.00 0.00 65 1008.4
20260903164826 94 203 2.0 3.0 0.00 0.00 0.00 69 1008.8
20260903164224 93 180 1.0 1.0 0.00 0.00 0.00 71 1009.1
20260903163636 93 275 3.0 4.0 0.00 0.00 0.00 70 1008.8
20260903163045 94 181 2.0 2.0 0.00 0.00 0.00 72 1009.1
20260903162415 93 206 2.0 3.0 0.00 0.00 0.00 69 1009.1
20260903161805 93 187 1.0 2.0 0.00 0.00 0.00 69 1009.1
20260903161249 92 206 2.0 2.0 0.00 0.00 0.00 74 1009.1
20260903155408 92 167 1.0 1.0 0.00 0.00 0.00 74 1009.1
20260903154825 92 11 1.0 2.0 0.00 0.00 0.00 71 1009.1
20260903154226 91 183 0.0 1.0 0.00 0.00 0.00 75 1009.1
20260903153632 91 196 1.0 1.0 0.00 0.00 0.00 75 1009.1
20260903153007 90 166 0.0 0.0 0.00 0.00 0.00 76 1009.1
20260903152413 90 205 0.0 1.0 0.00 0.00 0.00 77 1009.4
20260903151835 89 137 0.0 1.0 0.00 0.00 0.00 80 1009.4
20260903151219 88 149 0.0 0.0 0.00 0.00 0.00 81 1009.4
20260903150626 87 147 1.0 1.0 0.00 0.00 0.00 80 1009.4
20260903150044 86 161 0.0 0.0 0.00 0.00 0.00 83 1009.1
20260903145436 86 311 1.0 2.0 0.00 0.00 0.00 86 1009.1
20260903144818 85 185 1.0 1.0 0.00 0.00 0.00 87 1009.1
20260903144213 85 153 0.0 1.0 0.00 0.00 0.00 87 1009.4
20260903143651 84 108 0.0 1.0 0.00 0.00 0.00 88 1009.1
20260903143033 84 76 1.0 1.0 0.00 0.00 0.00 89 1009.4
20260903142447 82 117 0.0 1.0 0.00 0.00 0.00 92 1009.4
20260903141841 82 168 1.0 1.0 0.00 0.00 0.00 95 1009.4
20260903141221 81 133 0.0 0.0 0.00 0.00 0.00 95 1009.1
20260903140647 81 140 0.0 0.0 0.00 0.00 0.00 96 1009.1
20260903140010 80 134 0.0 0.0 0.00 0.00 0.00 97 1009.4
20260903135422 80 134 0.0 0.0 0.00 0.00 0.00 98 1009.1
20260903134229 78 168 1.0 2.0 0.00 0.00 0.00 99 1009.4
20260903133643 78 165 1.0 1.0 0.00 0.00 0.00 99 1009.4
20260903133012 77 150 0.0 0.0 0.00 0.00 0.00 99 1009.4
20260903132442 77 144 0.0 0.0 0.00 0.00 0.00 99 1009.4
20260903131849 76 145 0.0 0.0 0.00 0.00 0.00 99 1009.1
20260903131223 76 142 0.0 0.0 0.00 0.00 0.00 99 1009.4
20260903130610 75 154 0.0 0.0 0.00 0.00 0.00 99 1009.4
20260903130019 75 132 0.0 0.0 0.00 0.00 0.00 99 1009.8
20260903125448 74 144 0.0 0.0 0.00 0.00 0.00 99 1009.8
20260903124840 74 143 0.0 0.0 0.00 0.00 0.00 99 1009.8
20260903123623 74 142 0.0 0.0 0.00 0.00 0.00 99 1009.4
20260903123015 74 142 0.0 0.0 0.00 0.00 0.00 99 1009.8
20260903122448 73 142 0.0 0.0 0.00 0.00 0.00 99 1009.4
20260903121846 73 142 0.0 0.0 0.00 0.00 0.00 99 1009.4
20260903121235 73 142 0.0 0.0 0.00 0.00 0.00 99 1009.8
20260903120606 73 142 0.0 0.0 0.00 0.00 0.00 99 1009.4
20260903115439 73 142 0.0 0.0 0.00 0.00 0.00 99 1009.4
20260903114815 73 142 0.0 0.0 0.00 0.00 0.00 99 1009.4
20260903114218 72 142 0.0 0.0 0.00 0.00 0.00 99 1009.4
20260903113613 72 143 0.0 0.0 0.00 0.00 0.00 99 1009.4
20260903113040 72 143 0.0 0.0 0.00 0.00 0.00 99 1009.4
20260903112442 72 142 0.0 0.0 0.00 0.00 0.00 99 1009.4
20260903111840 72 143 0.0 0.0 0.00 0.00 0.00 99 1009.4
20260903111238 72 144 0.0 0.0 0.00 0.00 0.00 99 1009.1
20260903110016 72 143 0.0 0.0 0.00 0.00 0.00 99 1009.1
20260903104807 72 134 0.0 0.0 0.00 0.00 0.00 99 1009.1
20260903103014 72 129 0.0 0.0 0.00 0.00 0.00 99 1008.8
20260903102426 72 140 0.0 0.0 0.00 0.00 0.00 99 1008.8
20260903101226 72 140 0.0 0.0 0.00 0.00 0.00 99 1008.8
20260903100036 72 124 0.0 0.0 0.00 0.00 0.00 99 1008.8
20260903095419 72 136 0.0 0.0 0.00 0.00 0.00 99 1008.8
20260903094811 72 122 0.0 0.0 0.00 0.00 0.00 99 1008.8
20260903093017 72 139 0.0 0.0 0.00 0.00 0.00 99 1008.8
20260903092412 73 138 0.0 0.0 0.00 0.00 0.00 99 1008.8
20260903091837 73 136 0.0 0.0 0.00 0.00 0.00 99 1008.8
20260903091237 73 134 0.0 0.0 0.00 0.00 0.00 99 1008.8
20260903090638 73 134 0.0 0.0 0.00 0.00 0.00 99 1008.8
20260903090044 73 132 0.0 0.0 0.00 0.00 0.00 99 1008.4
20260903085441 73 135 0.0 0.0 0.00 0.00 0.00 99 1008.8
20260903084817 73 135 0.0 0.0 0.00 0.00 0.00 99 1008.8
20260903084237 73 131 0.0 0.0 0.00 0.00 0.00 99 1008.8